Location: Cazavet
(43.0017°N, 1.0431°E)
Time: 23:23:20
(UTC+00:00)

Meteor 1-15 Rocket - Pass Details

Date: 18 January 2026
Orbit: 839 x 906 km, 81.2° (Epoch: 13 February)

Event Time Altitude Azimuth Distance (km) Brightness Sun altitude
Rises 06:47:28 0° 201° (SSW) 3,462 7.4 -6.7°
Reaches altitude 10° 06:49:55 10° 205° (SSW) 2,537 6.7 -6.3°
Maximum altitude 06:55:37 57° 284° (WNW) 1,046 4.4 -5.3°
Drops below altitude 10° 07:01:25 10° 2° (N) 2,589 6.5 -4.3°
Sets 07:03:58 0° 7° (N) 3,538 7.3 -3.9°
